Year,Month,Day,Hour,Minute,Value (Times are PST for temperature in C)
2013,04,23,00,00,8.60
2013,04,23,00,01,8.60
2013,04,23,00,02,8.60
2013,04,23,00,03,8.60
2013,04,23,00,04,8.70
2013,04,23,00,05,8.70
2013,04,23,00,06,8.70
2013,04,23,00,07,8.70
2013,04,23,00,08,8.70
2013,04,23,00,09,8.60
2013,04,23,00,10,8.60
2013,04,23,00,11,8.60
2013,04,23,00,12,8.50
2013,04,23,00,13,8.50
2013,04,23,00,14,8.50
2013,04,23,00,15,8.50
2013,04,23,00,16,8.50
2013,04,23,00,17,8.50
2013,04,23,00,18,8.50
2013,04,23,00,19,8.60
2013,04,23,00,20,8.60
2013,04,23,00,21,8.60
2013,04,23,00,22,8.60
2013,04,23,00,23,8.60
2013,04,23,00,24,8.70
2013,04,23,00,25,8.70
2013,04,23,00,26,8.70
2013,04,23,00,27,8.70
2013,04,23,00,28,8.70
2013,04,23,00,29,8.70
2013,04,23,00,30,8.70
2013,04,23,00,31,8.70
2013,04,23,00,32,8.60
2013,04,23,00,33,8.60
2013,04,23,00,34,8.60
2013,04,23,00,35,8.60
2013,04,23,00,36,8.60
2013,04,23,00,37,8.60
2013,04,23,00,38,8.60
2013,04,23,00,39,8.60
2013,04,23,00,40,8.60
2013,04,23,00,41,8.60
2013,04,23,00,42,8.60
2013,04,23,00,43,8.50
2013,04,23,00,44,8.50
2013,04,23,00,45,8.50
2013,04,23,00,46,8.50
2013,04,23,00,47,8.50
2013,04,23,00,48,8.50
2013,04,23,00,49,8.50
2013,04,23,00,50,8.50
2013,04,23,00,51,8.50
2013,04,23,00,52,8.40
2013,04,23,00,53,8.40
2013,04,23,00,54,8.40
2013,04,23,00,55,8.40
2013,04,23,00,56,8.30
2013,04,23,00,57,8.30
2013,04,23,00,58,8.30
2013,04,23,00,59,8.30
2013,04,23,01,00,8.20
2013,04,23,01,01,8.10
2013,04,23,01,02,7.80
2013,04,23,01,03,7.60
2013,04,23,01,04,7.40
2013,04,23,01,05,7.20
2013,04,23,01,06,7.10
2013,04,23,01,07,6.90
2013,04,23,01,08,6.70
2013,04,23,01,09,6.60
2013,04,23,01,10,6.60
2013,04,23,01,11,6.50
2013,04,23,01,12,6.50
2013,04,23,01,13,6.50
2013,04,23,01,14,6.40
2013,04,23,01,15,6.40
2013,04,23,01,16,6.40
2013,04,23,01,17,6.30
2013,04,23,01,18,6.30
2013,04,23,01,19,6.30
2013,04,23,01,20,6.30
2013,04,23,01,21,6.30
2013,04,23,01,22,6.40
2013,04,23,01,23,6.40
2013,04,23,01,24,6.40
2013,04,23,01,25,6.30
2013,04,23,01,26,6.30
2013,04,23,01,27,6.30
2013,04,23,01,28,6.30
2013,04,23,01,29,6.30
2013,04,23,01,30,6.30
2013,04,23,01,31,6.30
2013,04,23,01,32,6.20
2013,04,23,01,33,6.20
2013,04,23,01,34,6.20
2013,04,23,01,35,6.10
2013,04,23,01,36,6.10
2013,04,23,01,37,6.00
2013,04,23,01,38,5.90
2013,04,23,01,39,5.80
2013,04,23,01,40,5.70
2013,04,23,01,41,5.60
2013,04,23,01,42,5.50
2013,04,23,01,43,5.40
2013,04,23,01,44,5.30
2013,04,23,01,45,5.20
2013,04,23,01,46,5.10
2013,04,23,01,47,5.00
2013,04,23,01,48,4.90
2013,04,23,01,49,4.90
2013,04,23,01,50,4.80
2013,04,23,01,51,4.80
2013,04,23,01,52,4.80
2013,04,23,01,53,4.80
2013,04,23,01,54,4.80
2013,04,23,01,55,4.80
2013,04,23,01,56,4.90
2013,04,23,01,57,4.90
2013,04,23,01,58,5.00
2013,04,23,01,59,5.10
2013,04,23,02,00,5.20
2013,04,23,02,01,5.20
2013,04,23,02,02,5.30
2013,04,23,02,03,5.30
2013,04,23,02,04,5.30
2013,04,23,02,05,5.40
2013,04,23,02,06,5.50
2013,04,23,02,07,5.50
2013,04,23,02,08,5.60
2013,04,23,02,09,5.60
2013,04,23,02,10,5.70
2013,04,23,02,11,5.70
2013,04,23,02,12,5.60
2013,04,23,02,13,5.60
2013,04,23,02,14,5.50
2013,04,23,02,15,5.50
2013,04,23,02,16,5.40
2013,04,23,02,17,5.30
2013,04,23,02,18,5.30
2013,04,23,02,19,5.20
2013,04,23,02,20,5.10
2013,04,23,02,21,5.10
2013,04,23,02,22,5.00
2013,04,23,02,23,5.00
2013,04,23,02,24,4.90
2013,04,23,02,25,4.90
2013,04,23,02,26,4.90
2013,04,23,02,27,4.90
2013,04,23,02,28,4.90
2013,04,23,02,29,4.80
2013,04,23,02,30,4.80
2013,04,23,02,31,4.80
2013,04,23,02,32,4.80
2013,04,23,02,33,4.70
2013,04,23,02,34,4.70
2013,04,23,02,35,4.70
2013,04,23,02,36,4.70
2013,04,23,02,37,4.70
2013,04,23,02,38,4.70
2013,04,23,02,39,4.80
2013,04,23,02,40,4.80
2013,04,23,02,41,4.90
2013,04,23,02,42,4.90
2013,04,23,02,43,4.90
2013,04,23,02,44,5.00
2013,04,23,02,45,5.00
2013,04,23,02,46,5.10
2013,04,23,02,47,5.20
2013,04,23,02,48,5.30
2013,04,23,02,49,5.50
2013,04,23,02,50,5.60
2013,04,23,02,51,5.60
2013,04,23,02,52,5.70
2013,04,23,02,53,5.70
2013,04,23,02,54,5.80
2013,04,23,02,55,5.80
2013,04,23,02,56,5.80
2013,04,23,02,57,5.80
2013,04,23,02,58,5.70
2013,04,23,02,59,5.70
2013,04,23,03,00,5.70
2013,04,23,03,01,5.60
2013,04,23,03,02,5.50
2013,04,23,03,03,5.40
2013,04,23,03,04,5.30
2013,04,23,03,05,5.20
2013,04,23,03,06,5.00
2013,04,23,03,07,4.80
2013,04,23,03,08,4.70
2013,04,23,03,09,4.60
2013,04,23,03,10,4.50
2013,04,23,03,11,4.40
2013,04,23,03,12,4.30
2013,04,23,03,13,4.30
2013,04,23,03,14,4.30
2013,04,23,03,15,4.40
2013,04,23,03,16,4.60
2013,04,23,03,17,4.70
2013,04,23,03,18,4.70
2013,04,23,03,19,4.60
2013,04,23,03,20,4.50
2013,04,23,03,21,4.50
2013,04,23,03,22,4.40
2013,04,23,03,23,4.30
2013,04,23,03,24,4.30
2013,04,23,03,25,4.20
2013,04,23,03,26,4.20
2013,04,23,03,27,4.30
2013,04,23,03,28,4.40
2013,04,23,03,29,4.50
2013,04,23,03,30,4.60
2013,04,23,03,31,4.60
2013,04,23,03,32,4.60
2013,04,23,03,33,4.70
2013,04,23,03,34,4.70
2013,04,23,03,35,4.90
2013,04,23,03,36,5.00
2013,04,23,03,37,5.10
2013,04,23,03,38,5.20
2013,04,23,03,39,5.40
2013,04,23,03,40,5.50
2013,04,23,03,41,5.60
2013,04,23,03,42,5.60
2013,04,23,03,43,5.60
2013,04,23,03,44,5.50
2013,04,23,03,45,5.40
2013,04,23,03,46,5.20
2013,04,23,03,47,5.00
2013,04,23,03,48,4.80
2013,04,23,03,49,4.60
2013,04,23,03,50,4.40
2013,04,23,03,51,4.30
2013,04,23,03,52,4.20
2013,04,23,03,53,4.20
2013,04,23,03,54,4.20
2013,04,23,03,55,4.30
2013,04,23,03,56,4.50
2013,04,23,03,57,4.60
2013,04,23,03,58,4.80
2013,04,23,03,59,4.90
2013,04,23,04,00,5.10
2013,04,23,04,01,5.20
2013,04,23,04,02,5.30
2013,04,23,04,03,5.40
2013,04,23,04,04,5.40
2013,04,23,04,05,5.40
2013,04,23,04,06,5.40
2013,04,23,04,07,5.30
2013,04,23,04,08,5.20
2013,04,23,04,09,5.00
2013,04,23,04,10,4.80
2013,04,23,04,11,4.60
2013,04,23,04,12,4.30
2013,04,23,04,13,4.10
2013,04,23,04,14,3.90
2013,04,23,04,15,3.80
2013,04,23,04,16,3.70
2013,04,23,04,17,3.70
2013,04,23,04,18,3.80
2013,04,23,04,19,3.80
2013,04,23,04,20,3.80
2013,04,23,04,21,3.90
2013,04,23,04,22,4.00
2013,04,23,04,23,4.20
2013,04,23,04,24,4.30
2013,04,23,04,25,4.40
2013,04,23,04,26,4.40
2013,04,23,04,27,4.50
2013,04,23,04,28,4.50
2013,04,23,04,29,4.60
2013,04,23,04,30,4.60
2013,04,23,04,31,4.60
2013,04,23,04,32,4.70
2013,04,23,04,33,4.70
2013,04,23,04,34,4.70
2013,04,23,04,35,4.70
2013,04,23,04,36,4.70
2013,04,23,04,37,4.70
2013,04,23,04,38,4.60
2013,04,23,04,39,4.50
2013,04,23,04,40,4.30
2013,04,23,04,41,4.20
2013,04,23,04,42,4.10
2013,04,23,04,43,4.10
2013,04,23,04,44,4.00
2013,04,23,04,45,4.00
2013,04,23,04,46,4.00
2013,04,23,04,47,4.00
2013,04,23,04,48,3.90
2013,04,23,04,49,3.90
2013,04,23,04,50,3.90
2013,04,23,04,51,3.90
2013,04,23,04,52,4.00
2013,04,23,04,53,4.00
2013,04,23,04,54,4.00
2013,04,23,04,55,4.00
2013,04,23,04,56,3.90
2013,04,23,04,57,3.80
2013,04,23,04,58,3.80
2013,04,23,04,59,3.70
2013,04,23,05,00,3.70
2013,04,23,05,01,3.60
2013,04,23,05,02,3.60
2013,04,23,05,03,3.50
2013,04,23,05,04,3.50
2013,04,23,05,05,3.40
2013,04,23,05,06,3.40
2013,04,23,05,07,3.40
2013,04,23,05,08,3.30
2013,04,23,05,09,3.30
2013,04,23,05,10,3.30
2013,04,23,05,11,3.40
2013,04,23,05,12,3.50
2013,04,23,05,13,3.60
2013,04,23,05,14,3.70
2013,04,23,05,15,3.80
2013,04,23,05,16,4.00
2013,04,23,05,17,4.10
2013,04,23,05,18,4.30
2013,04,23,05,19,4.40
2013,04,23,05,20,4.40
2013,04,23,05,21,4.40
2013,04,23,05,22,4.30
2013,04,23,05,23,4.20
2013,04,23,05,24,4.10
2013,04,23,05,25,4.00
2013,04,23,05,26,3.90
2013,04,23,05,27,3.90
2013,04,23,05,28,3.90
2013,04,23,05,29,3.90
2013,04,23,05,30,3.90
2013,04,23,05,31,3.80
2013,04,23,05,32,3.70
2013,04,23,05,33,3.50
2013,04,23,05,34,3.40
2013,04,23,05,35,3.30
2013,04,23,05,36,3.30
2013,04,23,05,37,3.30
2013,04,23,05,38,3.50
2013,04,23,05,39,3.70
2013,04,23,05,40,3.80
2013,04,23,05,41,3.90
2013,04,23,05,42,3.90
2013,04,23,05,43,3.90
2013,04,23,05,44,4.00
2013,04,23,05,45,4.10
2013,04,23,05,46,4.10
2013,04,23,05,47,4.10
2013,04,23,05,48,4.00
2013,04,23,05,49,4.00
2013,04,23,05,50,3.90
2013,04,23,05,51,3.90
2013,04,23,05,52,3.90
2013,04,23,05,53,4.00
2013,04,23,05,54,4.10
2013,04,23,05,55,4.20
2013,04,23,05,56,4.20
2013,04,23,05,57,4.30
2013,04,23,05,58,4.40
2013,04,23,05,59,4.40
2013,04,23,06,00,4.40
2013,04,23,06,01,4.40
2013,04,23,06,02,4.30
2013,04,23,06,03,4.20
2013,04,23,06,04,4.20
2013,04,23,06,05,4.10
2013,04,23,06,06,4.10
2013,04,23,06,07,4.00
2013,04,23,06,08,4.00
2013,04,23,06,09,4.00
2013,04,23,06,10,3.90
2013,04,23,06,11,3.90
2013,04,23,06,12,3.80
2013,04,23,06,13,3.80
2013,04,23,06,14,3.80
2013,04,23,06,15,3.80
2013,04,23,06,16,3.70
2013,04,23,06,17,3.70
2013,04,23,06,18,3.80
2013,04,23,06,19,3.80
2013,04,23,06,20,3.80
2013,04,23,06,21,3.90
2013,04,23,06,22,3.90
2013,04,23,06,23,3.90
2013,04,23,06,24,3.90
2013,04,23,06,25,3.90
2013,04,23,06,26,3.90
2013,04,23,06,27,3.90
2013,04,23,06,28,3.90
2013,04,23,06,29,3.90
2013,04,23,06,30,3.90
2013,04,23,06,31,3.90
2013,04,23,06,32,4.00
2013,04,23,06,33,4.10
2013,04,23,06,34,4.10
2013,04,23,06,35,4.20
2013,04,23,06,36,4.30
2013,04,23,06,37,4.30
2013,04,23,06,38,4.40
2013,04,23,06,39,4.40
2013,04,23,06,40,4.40
2013,04,23,06,41,4.40
2013,04,23,06,42,4.40
2013,04,23,06,43,4.40
2013,04,23,06,44,4.30
2013,04,23,06,45,4.30
2013,04,23,06,46,4.20
2013,04,23,06,47,4.10
2013,04,23,06,48,4.00
2013,04,23,06,49,4.00
2013,04,23,06,50,3.90
2013,04,23,06,51,4.00
2013,04,23,06,52,4.10
2013,04,23,06,53,4.20
2013,04,23,06,54,4.20
2013,04,23,06,55,4.30
2013,04,23,06,56,4.40
2013,04,23,06,57,4.50
2013,04,23,06,58,4.50
2013,04,23,06,59,4.60
2013,04,23,07,00,4.70
2013,04,23,07,01,4.70
2013,04,23,07,02,4.80
2013,04,23,07,03,4.80
2013,04,23,07,04,4.80
2013,04,23,07,05,4.90
2013,04,23,07,06,4.90
2013,04,23,07,07,5.00
2013,04,23,07,08,5.00
2013,04,23,07,09,5.10
2013,04,23,07,10,5.10
2013,04,23,07,11,5.10
2013,04,23,07,12,5.10
2013,04,23,07,13,5.10
2013,04,23,07,14,5.20
2013,04,23,07,15,5.20
2013,04,23,07,16,5.20
2013,04,23,07,17,5.20
2013,04,23,07,18,5.20
2013,04,23,07,19,5.20
2013,04,23,07,20,5.20
2013,04,23,07,21,5.20
2013,04,23,07,22,5.20
2013,04,23,07,23,5.20
2013,04,23,07,24,5.20
2013,04,23,07,25,5.20
2013,04,23,07,26,5.20
2013,04,23,07,27,5.20
2013,04,23,07,28,5.20
2013,04,23,07,29,5.20
2013,04,23,07,30,5.30
2013,04,23,07,31,5.30
2013,04,23,07,32,5.30
2013,04,23,07,33,5.40
2013,04,23,07,34,5.40
2013,04,23,07,35,5.40
2013,04,23,07,36,5.50
2013,04,23,07,37,5.50
2013,04,23,07,38,5.60
2013,04,23,07,39,5.60
2013,04,23,07,40,5.70
2013,04,23,07,41,5.70
2013,04,23,07,42,5.70
2013,04,23,07,43,5.70
2013,04,23,07,44,5.80
2013,04,23,07,45,5.80
2013,04,23,07,46,5.70
2013,04,23,07,47,5.60
2013,04,23,07,48,5.60
2013,04,23,07,49,5.50
2013,04,23,07,50,5.40
2013,04,23,07,51,5.40
2013,04,23,07,52,5.40
2013,04,23,07,53,5.40
2013,04,23,07,54,5.40
2013,04,23,07,55,5.40
2013,04,23,07,56,5.40
2013,04,23,07,57,5.40
2013,04,23,07,58,5.40
2013,04,23,07,59,5.40
2013,04,23,08,00,5.50
2013,04,23,08,01,5.50
2013,04,23,08,02,5.60
2013,04,23,08,03,5.60
2013,04,23,08,04,5.70
2013,04,23,08,05,5.70
2013,04,23,08,06,5.80
2013,04,23,08,07,5.80
2013,04,23,08,08,5.90
2013,04,23,08,09,6.00
2013,04,23,08,10,6.10
2013,04,23,08,11,6.10
2013,04,23,08,12,6.20
2013,04,23,08,13,6.20
2013,04,23,08,14,6.20
2013,04,23,08,15,6.20
2013,04,23,08,16,6.30
2013,04,23,08,17,6.30
2013,04,23,08,18,6.30
2013,04,23,08,19,6.30
2013,04,23,08,20,6.40
2013,04,23,08,21,6.40
2013,04,23,08,22,6.40
2013,04,23,08,23,6.50
2013,04,23,08,24,6.50
2013,04,23,08,25,6.60
2013,04,23,08,26,6.60
2013,04,23,08,27,6.70
2013,04,23,08,28,6.70
2013,04,23,08,29,6.80
2013,04,23,08,30,6.80
2013,04,23,08,31,6.90
2013,04,23,08,32,6.90
2013,04,23,08,33,7.00
2013,04,23,08,34,7.00
2013,04,23,08,35,7.10
2013,04,23,08,36,7.10
2013,04,23,08,37,7.20
2013,04,23,08,38,7.30
2013,04,23,08,39,7.30
2013,04,23,08,40,7.40
2013,04,23,08,41,7.40
2013,04,23,08,42,7.50
2013,04,23,08,43,7.50
2013,04,23,08,44,7.50
2013,04,23,08,45,7.60
2013,04,23,08,46,7.70
2013,04,23,08,47,7.70
2013,04,23,08,48,7.70
2013,04,23,08,49,7.80
2013,04,23,08,50,7.80
2013,04,23,08,51,7.80
2013,04,23,08,52,7.90
2013,04,23,08,53,7.90
2013,04,23,08,54,7.90
2013,04,23,08,55,7.90
2013,04,23,08,56,8.00
2013,04,23,08,57,8.10
2013,04,23,08,58,8.10
2013,04,23,08,59,8.10
2013,04,23,09,00,8.20
2013,04,23,09,01,8.20
2013,04,23,09,02,8.20
2013,04,23,09,03,8.30
2013,04,23,09,04,8.30
2013,04,23,09,05,8.30
2013,04,23,09,06,8.40
2013,04,23,09,07,8.40
2013,04,23,09,08,8.50
2013,04,23,09,09,8.50
2013,04,23,09,10,8.60
2013,04,23,09,11,8.60
2013,04,23,09,12,8.70
2013,04,23,09,13,8.70
2013,04,23,09,14,8.70
2013,04,23,09,15,8.70
2013,04,23,09,16,8.70
2013,04,23,09,17,8.70
2013,04,23,09,18,8.70
2013,04,23,09,19,8.80
2013,04,23,09,20,8.80
2013,04,23,09,21,8.80
2013,04,23,09,22,8.80
2013,04,23,09,23,8.80
2013,04,23,09,24,8.90
2013,04,23,09,25,8.90
2013,04,23,09,26,8.90
2013,04,23,09,27,9.00
2013,04,23,09,28,9.00
2013,04,23,09,29,9.10
2013,04,23,09,30,9.10
2013,04,23,09,31,9.20
2013,04,23,09,32,9.20
2013,04,23,09,33,9.20
2013,04,23,09,34,9.30
2013,04,23,09,35,9.30
2013,04,23,09,36,9.20
2013,04,23,09,37,9.20
2013,04,23,09,38,9.20
2013,04,23,09,39,9.20
2013,04,23,09,40,9.30
2013,04,23,09,41,9.30
2013,04,23,09,42,9.40
2013,04,23,09,43,9.40
2013,04,23,09,44,9.50
2013,04,23,09,45,9.60
2013,04,23,09,46,9.60
2013,04,23,09,47,9.70
2013,04,23,09,48,9.80
2013,04,23,09,49,9.80
2013,04,23,09,50,9.90
2013,04,23,09,51,10.00
2013,04,23,09,52,10.00
2013,04,23,09,53,10.00
2013,04,23,09,54,10.10
2013,04,23,09,55,10.10
2013,04,23,09,56,10.10
2013,04,23,09,57,10.10
2013,04,23,09,58,10.10
2013,04,23,09,59,10.10
2013,04,23,10,00,10.10
2013,04,23,10,01,10.00
2013,04,23,10,02,10.00
2013,04,23,10,03,10.00
2013,04,23,10,04,9.90
2013,04,23,10,05,9.90
2013,04,23,10,06,9.90
2013,04,23,10,07,9.90
2013,04,23,10,08,9.80
2013,04,23,10,09,9.80
2013,04,23,10,10,9.80
2013,04,23,10,11,9.80
2013,04,23,10,12,9.80
2013,04,23,10,13,9.80
2013,04,23,10,14,9.80
2013,04,23,10,15,9.80
2013,04,23,10,16,9.80
2013,04,23,10,17,9.70
2013,04,23,10,18,9.70
2013,04,23,10,19,9.70
2013,04,23,10,20,9.70
2013,04,23,10,21,9.80
2013,04,23,10,22,9.80
2013,04,23,10,23,9.80
2013,04,23,10,24,9.80
2013,04,23,10,25,9.80
2013,04,23,10,26,9.90
2013,04,23,10,27,9.90
2013,04,23,10,28,9.80
2013,04,23,10,29,9.80
2013,04,23,10,30,9.70
2013,04,23,10,31,9.70
2013,04,23,10,32,9.70
2013,04,23,10,33,9.70
2013,04,23,10,34,9.70
2013,04,23,10,35,9.70
2013,04,23,10,36,9.70
2013,04,23,10,37,9.70
2013,04,23,10,38,9.70
2013,04,23,10,39,9.70
2013,04,23,10,40,9.70
2013,04,23,10,41,9.70
2013,04,23,10,42,9.70
2013,04,23,10,43,9.70
2013,04,23,10,44,9.60
2013,04,23,10,45,9.60
2013,04,23,10,46,9.60
2013,04,23,10,47,9.60
2013,04,23,10,48,9.60
2013,04,23,10,49,9.50
2013,04,23,10,50,9.40
2013,04,23,10,51,9.40
2013,04,23,10,52,9.40
2013,04,23,10,53,9.30
2013,04,23,10,54,9.30
2013,04,23,10,55,9.30
2013,04,23,10,56,9.20
2013,04,23,10,57,9.10
2013,04,23,10,58,9.10
2013,04,23,10,59,9.10
2013,04,23,11,00,9.00
2013,04,23,11,01,9.00
2013,04,23,11,02,8.90
2013,04,23,11,03,8.90
2013,04,23,11,04,8.80
2013,04,23,11,05,8.80
2013,04,23,11,06,8.80
2013,04,23,11,07,8.80
2013,04,23,11,08,8.80
2013,04,23,11,09,8.80
2013,04,23,11,10,8.80
2013,04,23,11,11,8.90
2013,04,23,11,12,8.90
2013,04,23,11,13,8.90
2013,04,23,11,14,9.00
2013,04,23,11,15,9.10
2013,04,23,11,16,9.10
2013,04,23,11,17,9.10
2013,04,23,11,18,9.10
2013,04,23,11,19,9.10
2013,04,23,11,20,9.10
2013,04,23,11,21,9.10
2013,04,23,11,22,9.10
2013,04,23,11,23,9.10
2013,04,23,11,24,9.00
2013,04,23,11,25,9.00
2013,04,23,11,26,9.00
2013,04,23,11,27,9.00
2013,04,23,11,28,9.10
2013,04,23,11,29,9.10
2013,04,23,11,30,9.10
2013,04,23,11,31,9.10
2013,04,23,11,32,9.20
2013,04,23,11,33,9.30
2013,04,23,11,34,9.50
2013,04,23,11,35,9.50
2013,04,23,11,36,9.50
2013,04,23,11,37,9.50
2013,04,23,11,38,9.50
2013,04,23,11,39,9.50
2013,04,23,11,40,9.60
2013,04,23,11,41,9.70
2013,04,23,11,42,9.70
2013,04,23,11,43,9.80
2013,04,23,11,44,9.80
2013,04,23,11,45,10.00
2013,04,23,11,46,10.00
2013,04,23,11,47,10.10
2013,04,23,11,48,10.10
2013,04,23,11,49,10.10
2013,04,23,11,50,10.10
2013,04,23,11,51,10.20
2013,04,23,11,52,10.20
2013,04,23,11,53,10.30
2013,04,23,11,54,10.40
2013,04,23,11,55,10.40
2013,04,23,11,56,10.50
2013,04,23,11,57,10.50
2013,04,23,11,58,10.50
2013,04,23,11,59,10.40
2013,04,23,12,00,10.40
2013,04,23,12,01,10.40
2013,04,23,12,02,10.40
2013,04,23,12,03,10.40
2013,04,23,12,04,10.50
2013,04,23,12,05,10.60
2013,04,23,12,06,10.60
2013,04,23,12,07,10.50
2013,04,23,12,08,10.50
2013,04,23,12,09,10.40
2013,04,23,12,10,10.40
2013,04,23,12,11,10.50
2013,04,23,12,12,10.60
2013,04,23,12,13,10.60
2013,04,23,12,14,10.70
2013,04,23,12,15,10.80
2013,04,23,12,16,10.80
2013,04,23,12,17,10.80
2013,04,23,12,18,10.80
2013,04,23,12,19,10.70
2013,04,23,12,20,10.70
2013,04,23,12,21,10.70
2013,04,23,12,22,10.70
2013,04,23,12,23,10.80
2013,04,23,12,24,11.00
2013,04,23,12,25,11.10
2013,04,23,12,26,11.20
2013,04,23,12,27,11.30
2013,04,23,12,28,11.40
2013,04,23,12,29,11.50
2013,04,23,12,30,11.50
2013,04,23,12,31,11.60
2013,04,23,12,32,11.70
2013,04,23,12,33,11.90
2013,04,23,12,34,12.00
2013,04,23,12,35,11.90
2013,04,23,12,36,11.80
2013,04,23,12,37,11.80
2013,04,23,12,38,11.80
2013,04,23,12,39,11.90
2013,04,23,12,40,12.00
2013,04,23,12,41,12.10
2013,04,23,12,42,12.20
2013,04,23,12,43,12.20
2013,04,23,12,44,12.20
2013,04,23,12,45,12.20
2013,04,23,12,46,12.30
2013,04,23,12,47,12.30
2013,04,23,12,48,12.30
2013,04,23,12,49,12.40
2013,04,23,12,50,12.50
2013,04,23,12,51,12.70
2013,04,23,12,52,12.80
2013,04,23,12,53,12.90
2013,04,23,12,54,13.00
2013,04,23,12,55,13.10
2013,04,23,12,56,13.20
2013,04,23,12,57,13.20
2013,04,23,12,58,13.20
2013,04,23,12,59,13.00
2013,04,23,13,00,12.90
2013,04,23,13,01,12.80
2013,04,23,13,02,12.60
2013,04,23,13,03,12.50
2013,04,23,13,04,12.50
2013,04,23,13,05,12.60
2013,04,23,13,06,12.60
2013,04,23,13,07,12.70
2013,04,23,13,08,12.70
2013,04,23,13,09,12.70
2013,04,23,13,10,12.80
2013,04,23,13,11,12.80
2013,04,23,13,12,12.80
2013,04,23,13,13,12.70
2013,04,23,13,14,12.60
2013,04,23,13,15,12.50
2013,04,23,13,16,12.40
2013,04,23,13,17,12.50
2013,04,23,13,18,12.60
2013,04,23,13,19,12.80
2013,04,23,13,20,13.00
2013,04,23,13,21,13.10
2013,04,23,13,22,13.20
2013,04,23,13,23,13.20
2013,04,23,13,24,13.20
2013,04,23,13,25,13.10
2013,04,23,13,26,13.10
2013,04,23,13,27,13.10
2013,04,23,13,28,13.20
2013,04,23,13,29,13.20
2013,04,23,13,30,13.20
2013,04,23,13,31,13.20
2013,04,23,13,32,13.10
2013,04,23,13,33,13.10
2013,04,23,13,34,13.20
2013,04,23,13,35,13.30
2013,04,23,13,36,13.40
2013,04,23,13,37,13.50
2013,04,23,13,38,13.60
2013,04,23,13,39,13.60
2013,04,23,13,40,13.50
2013,04,23,13,41,13.50
2013,04,23,13,42,13.50
2013,04,23,13,43,13.40
2013,04,23,13,44,13.30
2013,04,23,13,45,13.30
2013,04,23,13,46,13.40
2013,04,23,13,47,13.60
2013,04,23,13,48,13.70
2013,04,23,13,49,13.80
2013,04,23,13,50,13.90
2013,04,23,13,51,13.90
2013,04,23,13,52,13.90
2013,04,23,13,53,14.00
2013,04,23,13,54,14.00
2013,04,23,13,55,13.90
2013,04,23,13,56,13.80
2013,04,23,13,57,13.80
2013,04,23,13,58,13.80
2013,04,23,13,59,13.70
2013,04,23,14,00,13.70
2013,04,23,14,01,13.70
2013,04,23,14,02,13.70
2013,04,23,14,03,13.70
2013,04,23,14,04,13.70
2013,04,23,14,05,13.80
2013,04,23,14,06,13.80
2013,04,23,14,07,13.90
2013,04,23,14,08,13.80
2013,04,23,14,09,13.80
2013,04,23,14,10,13.80
2013,04,23,14,11,13.80
2013,04,23,14,12,13.70
2013,04,23,14,13,13.60
2013,04,23,14,14,13.60
2013,04,23,14,15,13.60
2013,04,23,14,16,13.60
2013,04,23,14,17,13.70
2013,04,23,14,18,13.70
2013,04,23,14,19,13.70
2013,04,23,14,20,13.70
2013,04,23,14,21,13.70
2013,04,23,14,22,13.80
2013,04,23,14,23,13.80
2013,04,23,14,24,13.90
2013,04,23,14,25,14.00
2013,04,23,14,26,14.10
2013,04,23,14,27,14.30
2013,04,23,14,28,14.30
2013,04,23,14,29,14.20
2013,04,23,14,30,14.20
2013,04,23,14,31,14.10
2013,04,23,14,32,14.00
2013,04,23,14,33,14.00
2013,04,23,14,34,13.90
2013,04,23,14,35,13.90
2013,04,23,14,36,13.90
2013,04,23,14,37,13.90
2013,04,23,14,38,13.90
2013,04,23,14,39,13.90
2013,04,23,14,40,14.00
2013,04,23,14,41,14.10
2013,04,23,14,42,14.20
2013,04,23,14,43,14.30
2013,04,23,14,44,14.30
2013,04,23,14,45,14.40
2013,04,23,14,46,14.50
2013,04,23,14,47,14.60
2013,04,23,14,48,14.70
2013,04,23,14,49,14.70
2013,04,23,14,50,14.80
2013,04,23,14,51,14.80
2013,04,23,14,52,14.80
2013,04,23,14,53,14.80
2013,04,23,14,54,14.80
2013,04,23,14,55,14.70
2013,04,23,14,56,14.60
2013,04,23,14,57,14.60
2013,04,23,14,58,14.60
2013,04,23,14,59,14.60
2013,04,23,15,00,14.50
2013,04,23,15,01,14.50
2013,04,23,15,02,14.40
2013,04,23,15,03,14.30
2013,04,23,15,04,14.10
2013,04,23,15,05,14.00
2013,04,23,15,06,14.00
2013,04,23,15,07,14.10
2013,04,23,15,08,14.10
2013,04,23,15,09,14.10
2013,04,23,15,10,14.20
2013,04,23,15,11,14.10
2013,04,23,15,12,14.00
2013,04,23,15,13,13.90
2013,04,23,15,14,13.90
2013,04,23,15,15,13.90
2013,04,23,15,16,13.90
2013,04,23,15,17,13.90
2013,04,23,15,18,13.80
2013,04,23,15,19,13.80
2013,04,23,15,20,13.80
2013,04,23,15,21,13.80
2013,04,23,15,22,13.90
2013,04,23,15,23,14.00
2013,04,23,15,24,14.00
2013,04,23,15,25,13.90
2013,04,23,15,26,13.80
2013,04,23,15,27,13.70
2013,04,23,15,28,13.60
2013,04,23,15,29,13.60
2013,04,23,15,30,13.60
2013,04,23,15,31,13.70
2013,04,23,15,32,13.80
2013,04,23,15,33,13.80
2013,04,23,15,34,13.90
2013,04,23,15,35,13.90
2013,04,23,15,36,14.00
2013,04,23,15,37,14.00
2013,04,23,15,38,14.10
2013,04,23,15,39,14.00
2013,04,23,15,40,13.90
2013,04,23,15,41,13.80
2013,04,23,15,42,13.80
2013,04,23,15,43,13.80
2013,04,23,15,44,13.80
2013,04,23,15,45,13.90
2013,04,23,15,46,14.00
2013,04,23,15,47,14.10
2013,04,23,15,48,14.10
2013,04,23,15,49,14.10
2013,04,23,15,50,14.10
2013,04,23,15,51,14.20
2013,04,23,15,52,14.20
2013,04,23,15,53,14.20
2013,04,23,15,54,14.20
2013,04,23,15,55,14.20
2013,04,23,15,56,14.20
2013,04,23,15,57,14.20
2013,04,23,15,58,14.10
2013,04,23,15,59,14.10
2013,04,23,16,00,14.10
2013,04,23,16,01,14.00
2013,04,23,16,02,14.00
2013,04,23,16,03,13.90
2013,04,23,16,04,13.80
2013,04,23,16,05,13.80
2013,04,23,16,06,13.80
2013,04,23,16,07,13.80
2013,04,23,16,08,13.80
2013,04,23,16,09,13.90
2013,04,23,16,10,13.90
2013,04,23,16,11,14.00
2013,04,23,16,12,14.10
2013,04,23,16,13,14.10
2013,04,23,16,14,14.20
2013,04,23,16,15,14.20
2013,04,23,16,16,14.20
2013,04,23,16,17,14.20
2013,04,23,16,18,14.20
2013,04,23,16,19,14.30
2013,04,23,16,20,14.30
2013,04,23,16,21,14.20
2013,04,23,16,22,14.20
2013,04,23,16,23,14.40
2013,04,23,16,24,14.40
2013,04,23,16,25,14.30
2013,04,23,16,26,14.20
2013,04,23,16,27,14.20
2013,04,23,16,28,14.10
2013,04,23,16,29,14.10
2013,04,23,16,30,14.10
2013,04,23,16,31,14.10
2013,04,23,16,32,14.00
2013,04,23,16,33,14.00
2013,04,23,16,34,13.90
2013,04,23,16,35,13.90
2013,04,23,16,36,13.90
2013,04,23,16,37,13.80
2013,04,23,16,38,13.80
2013,04,23,16,39,13.90
2013,04,23,16,40,13.90
2013,04,23,16,41,13.90
2013,04,23,16,42,13.80
2013,04,23,16,43,13.70
2013,04,23,16,44,13.80
2013,04,23,16,45,13.80
2013,04,23,16,46,13.80
2013,04,23,16,47,13.80
2013,04,23,16,48,13.90
2013,04,23,16,49,13.90
2013,04,23,16,50,14.00
2013,04,23,16,51,14.10
2013,04,23,16,52,14.10
2013,04,23,16,53,14.20
2013,04,23,16,54,14.20
2013,04,23,16,55,14.20
2013,04,23,16,56,14.20
2013,04,23,16,57,14.20
2013,04,23,16,58,14.20
2013,04,23,16,59,14.20
2013,04,23,17,00,14.20
2013,04,23,17,01,14.20
2013,04,23,17,02,14.20
2013,04,23,17,03,14.20
2013,04,23,17,04,14.20
2013,04,23,17,05,14.20
2013,04,23,17,06,14.30
2013,04,23,17,07,14.20
2013,04,23,17,08,14.30
2013,04,23,17,09,14.30
2013,04,23,17,10,14.30
2013,04,23,17,11,14.40
2013,04,23,17,12,14.40
2013,04,23,17,13,14.50
2013,04,23,17,14,14.50
2013,04,23,17,15,14.40
2013,04,23,17,16,14.40
2013,04,23,17,17,14.40
2013,04,23,17,18,14.30
2013,04,23,17,19,14.30
2013,04,23,17,20,14.30
2013,04,23,17,21,14.40
2013,04,23,17,22,14.30
2013,04,23,17,23,14.30
2013,04,23,17,24,14.20
2013,04,23,17,25,14.20
2013,04,23,17,26,14.30
2013,04,23,17,27,14.30
2013,04,23,17,28,14.40
2013,04,23,17,29,14.40
2013,04,23,17,30,14.40
2013,04,23,17,31,14.40
2013,04,23,17,32,14.40
2013,04,23,17,33,14.40
2013,04,23,17,34,14.40
2013,04,23,17,35,14.40
2013,04,23,17,36,14.30
2013,04,23,17,37,14.30
2013,04,23,17,38,14.40
2013,04,23,17,39,14.40
2013,04,23,17,40,14.40
2013,04,23,17,41,14.40
2013,04,23,17,42,14.40
2013,04,23,17,43,14.30
2013,04,23,17,44,14.30
2013,04,23,17,45,14.30
2013,04,23,17,46,14.30
2013,04,23,17,47,14.40
2013,04,23,17,48,14.40
2013,04,23,17,49,14.40